• In Deutschland
  • Länderverzeichnis
  • Für 7 Tage
  • Wassertemperatur
  • Satellitenkarten
  • Wetterkarte
  • Widgets
  • user-avatar
    Anmelden

    Stündliche Wetter Garbsen

    Heute, 20 Februar, Dienstag

    Zeit Temperatur Niederschläge Wind Luftdruck Luftfeuchtigkeit
    00:00 +1°C° 0 mm 1 m/S 759 mmHg 81%
    01:00 0°C° 0 mm 1 m/S 759 mmHg 81%
    02:00 0°C° 0 mm 1 m/S 758 mmHg 82%
    03:00 0°C° 0 mm 1 m/S 758 mmHg 82%
    04:00 0°C° 0 mm 1 m/S 758 mmHg 83%
    05:00 0°C° 0 mm 1 m/S 758 mmHg 84%
    06:00 0°C° 0 mm 1 m/S 758 mmHg 85%
    07:00 -1°C° 0 mm 1 m/S 759 mmHg 87%
    08:00 -2°C° 0 mm 2 m/S 759 mmHg 81%
    09:00 -1°C° 0 mm 2 m/S 759 mmHg 76%
    10:00 +1°C° 0 mm 2 m/S 759 mmHg 70%
    11:00 +2°C° 0 mm 2 m/S 759 mmHg 65%
    12:00 +2°C° 0 mm 3 m/S 759 mmHg 61%
    13:00 +3°C° 0 mm 3 m/S 759 mmHg 56%
    14:00 +3°C° 0 mm 3 m/S 759 mmHg 57%
    15:00 +3°C° 0 mm 3 m/S 759 mmHg 58%
    16:00 +3°C° 0 mm 3 m/S 759 mmHg 59%
    17:00 +1°C° 0 mm 3 m/S 760 mmHg 65%
    18:00 0°C° 0 mm 3 m/S 760 mmHg 72%
    19:00 -1°C° 0 mm 3 m/S 760 mmHg 78%
    20:00 -2°C° 0 mm 2 m/S 761 mmHg 80%
    21:00 -2°C° 0 mm 2 m/S 761 mmHg 82%
    22:00 -2°C° 0 mm 2 m/S 762 mmHg 84%
    23:00 -3°C° 0 mm 2 m/S 762 mmHg 85%

    Morgen, 21 Februar, Mittwoch

    Zeit Temperatur Niederschläge Wind Luftdruck Luftfeuchtigkeit
    00:00 -3°C° 0 mm 2 m/S 762 mmHg 86%
    01:00 -3°C° 0 mm 2 m/S 763 mmHg 86%
    02:00 -3°C° 0 mm 2 m/S 763 mmHg 86%
    03:00 -3°C° 0 mm 2 m/S 763 mmHg 86%
    04:00 -3°C° 0 mm 2 m/S 763 mmHg 86%
    05:00 -3°C° 0 mm 2 m/S 763 mmHg 85%
    06:00 -3°C° 0 mm 2 m/S 763 mmHg 84%
    07:00 -3°C° 0 mm 2 m/S 764 mmHg 84%
    08:00 -2°C° 0 mm 2 m/S 764 mmHg 78%
    09:00 -2°C° 0 mm 2 m/S 764 mmHg 72%
    10:00 -1°C° 0 mm 2 m/S 764 mmHg 67%
    11:00 +1°C° 0 mm 2 m/S 764 mmHg 62%
    12:00 +1°C° 0 mm 3 m/S 764 mmHg 57%
    13:00 +2°C° 0 mm 3 m/S 763 mmHg 53%
    14:00 +2°C° 0 mm 3 m/S 763 mmHg 53%
    15:00 +2°C° 0 mm 3 m/S 763 mmHg 53%
    16:00 +2°C° 0 mm 3 m/S 763 mmHg 54%
    17:00 +1°C° 0 mm 3 m/S 763 mmHg 59%
    18:00 +1°C° 0 mm 2 m/S 763 mmHg 65%
    19:00 -2°C° 0 mm 2 m/S 763 mmHg 71%
    20:00 -2°C° 0 mm 2 m/S 764 mmHg 72%
    21:00 -2°C° 0 mm 2 m/S 764 mmHg 74%
    22:00 -3°C° 0 mm 2 m/S 764 mmHg 76%
    23:00 -3°C° 0 mm 2 m/S 764 mmHg 77%

    übermorgen, 22 Februar, Donnerstag

    Zeit Temperatur Niederschläge Wind Luftdruck Luftfeuchtigkeit
    00:00 -3°C° 0 mm 2 m/S 764 mmHg 78%
    01:00 -3°C° 0 mm 2 m/S 764 mmHg 79%
    02:00 -3°C° 0 mm 2 m/S 764 mmHg 79%
    03:00 -3°C° 0 mm 2 m/S 764 mmHg 79%
    04:00 -4°C° 0 mm 2 m/S 764 mmHg 79%
    05:00 -4°C° 0 mm 2 m/S 764 mmHg 78%
    06:00 -4°C° 0 mm 2 m/S 764 mmHg 77%
    07:00 -4°C° 0 mm 2 m/S 764 mmHg 76%
    08:00 -4°C° 0 mm 3 m/S 764 mmHg 69%
    09:00 -2°C° 0 mm 3 m/S 764 mmHg 62%
    10:00 -1°C° 0 mm 3 m/S 765 mmHg 56%
    11:00 -1°C° 0 mm 4 m/S 764 mmHg 53%
    12:00 0°C° 0 mm 4 m/S 764 mmHg 51%
    13:00 +1°C° 0 mm 4 m/S 764 mmHg 49%
    14:00 +1°C° 0 mm 4 m/S 764 mmHg 51%
    15:00 +1°C° 0 mm 4 m/S 764 mmHg 54%
    16:00 +1°C° 0 mm 4 m/S 763 mmHg 57%
    17:00 0°C° 0 mm 4 m/S 763 mmHg 63%
    18:00 0°C° 0 mm 3 m/S 764 mmHg 69%
    19:00 -1°C° 0 mm 3 m/S 764 mmHg 75%
    20:00 -2°C° 0 mm 3 m/S 764 mmHg 77%
    21:00 -2°C° 0 mm 3 m/S 764 mmHg 78%
    22:00 -4°C° 0 mm 3 m/S 764 mmHg 80%
    23:00 -4°C° 0 mm 3 m/S 764 mmHg 80%

    23 Februar, Freitag

    Zeit Temperatur Niederschläge Wind Luftdruck Luftfeuchtigkeit
    00:00 -4°C° 0 mm 3 m/S 765 mmHg 80%
    01:00 -5°C° 0 mm 3 m/S 765 mmHg 79%
    02:00 -5°C° 0 mm 3 m/S 764 mmHg 79%
    03:00 -5°C° 0 mm 3 m/S 764 mmHg 78%
    04:00 -5°C° 0 mm 3 m/S 764 mmHg 77%
    05:00 -5°C° 0 mm 3 m/S 764 mmHg 76%
    06:00 -5°C° 0 mm 3 m/S 765 mmHg 76%
    07:00 -5°C° 0 mm 3 m/S 765 mmHg 75%
    08:00 -4°C° 0 mm 4 m/S 765 mmHg 71%
    09:00 -4°C° 0 mm 4 m/S 765 mmHg 67%
    10:00 -4°C° 0 mm 5 m/S 766 mmHg 62%
    11:00 -2°C° 0 mm 5 m/S 766 mmHg 56%
    12:00 -1°C° 0 mm 5 m/S 765 mmHg 51%
    13:00 0°C° 0 mm 5 m/S 765 mmHg 45%
    14:00 0°C° 0 mm 5 m/S 765 mmHg 45%
    15:00 -1°C° 0 mm 6 m/S 765 mmHg 45%
    16:00 -1°C° 0 mm 6 m/S 765 mmHg 45%
    17:00 -1°C° 0 mm 5 m/S 765 mmHg 48%
    18:00 -4°C° 0 mm 5 m/S 765 mmHg 52%
    19:00 -5°C° 0 mm 5 m/S 766 mmHg 56%
    20:00 -5°C° 0 mm 5 m/S 766 mmHg 56%
    21:00 -5°C° 0 mm 5 m/S 766 mmHg 56%
    22:00 -5°C° 0 mm 5 m/S 767 mmHg 57%
    23:00 -6°C° 0 mm 5 m/S 767 mmHg 56%

    24 Februar, Samstag

    Zeit Temperatur Niederschläge Wind Luftdruck Luftfeuchtigkeit
    00:00 -6°C° 0 mm 5 m/S 767 mmHg 56%
    01:00 -6°C° 0 mm 6 m/S 767 mmHg 55%
    02:00 -6°C° 0 mm 6 m/S 767 mmHg 54%
    03:00 -6°C° 0 mm 6 m/S 767 mmHg 53%
    04:00 -6°C° 0 mm 6 m/S 767 mmHg 51%
    05:00 -6°C° 0 mm 6 m/S 767 mmHg 52%
    06:00 -6°C° 0 mm 6 m/S 767 mmHg 53%
    07:00 -6°C° 0 mm 6 m/S 768 mmHg 53%
    08:00 -7°C° 0 mm 7 m/S 768 mmHg 51%
    09:00 -6°C° 0 mm 7 m/S 768 mmHg 49%
    10:00 -4°C° 0 mm 7 m/S 769 mmHg 46%
    11:00 -4°C° 0 mm 7 m/S 768 mmHg 43%
    12:00 -3°C° 0 mm 7 m/S 768 mmHg 40%
    13:00 -2°C° 0 mm 7 m/S 768 mmHg 36%
    14:00 -2°C° 0 mm 7 m/S 768 mmHg 36%
    15:00 -2°C° 0 mm 7 m/S 768 mmHg 35%
    16:00 -2°C° 0 mm 7 m/S 768 mmHg 35%
    17:00 -3°C° 0 mm 7 m/S 768 mmHg 37%
    18:00 -4°C° 0 mm 6 m/S 768 mmHg 40%
    19:00 -5°C° 0 mm 6 m/S 768 mmHg 43%
    20:00 -6°C° 0 mm 6 m/S 769 mmHg 44%
    21:00 -6°C° 0 mm 6 m/S 769 mmHg 45%
    22:00 -6°C° 0 mm 6 m/S 769 mmHg 46%
    23:00 -8°C° 0 mm 6 m/S 769 mmHg 46%

    25 Februar, Sonntag

    Zeit Temperatur Niederschläge Wind Luftdruck Luftfeuchtigkeit
    00:00 -8°C° 0 mm 6 m/S 769 mmHg 47%
    01:00 -8°C° 0 mm 6 m/S 769 mmHg 47%
    02:00 -7°C° 0 mm 5 m/S 769 mmHg 47%
    03:00 -8°C° 0 mm 5 m/S 769 mmHg 47%
    04:00 -8°C° 0 mm 5 m/S 769 mmHg 47%
    05:00 -8°C° 0 mm 5 m/S 769 mmHg 47%
    06:00 -8°C° 0 mm 5 m/S 769 mmHg 48%
    07:00 -10°C° 0 mm 5 m/S 769 mmHg 48%
    08:00 -8°C° 0 mm 5 m/S 769 mmHg 45%
    09:00 -9°C° 0 mm 6 m/S 769 mmHg 43%
    10:00 -8°C° 0 mm 6 m/S 769 mmHg 40%
    11:00 -8°C° 0 mm 6 m/S 769 mmHg 38%
    12:00 -6°C° 0 mm 6 m/S 768 mmHg 35%
    13:00 -6°C° 0 mm 6 m/S 768 mmHg 32%
    14:00 -6°C° 0 mm 6 m/S 768 mmHg 31%
    15:00 -6°C° 0 mm 6 m/S 768 mmHg 30%
    16:00 -6°C° 0 mm 6 m/S 768 mmHg 29%
    17:00 -6°C° 0 mm 6 m/S 768 mmHg 30%
    18:00 -8°C° 0 mm 6 m/S 768 mmHg 32%
    19:00 -8°C° 0 mm 5 m/S 769 mmHg 33%
    20:00 -8°C° 0 mm 5 m/S 769 mmHg 35%
    21:00 -8°C° 0 mm 5 m/S 769 mmHg 37%
    22:00 -8°C° 0 mm 5 m/S 769 mmHg 39%
    23:00 -10°C° 0 mm 5 m/S 769 mmHg 41%
    Mehr zeigen